Location: Dittelbrunn
(50.0738°N, 10.2196°E)
Time: 22:09:56
(UTC+00:00)

ATLAS 2AS CENTAUR R/B - Pass Details

Date: 18 September 2020
Orbit: 939 x 1273 km, 63.7° (Epoch: 27 October)

Event Time Altitude Azimuth Distance (km) Brightness Sun altitude
Rises 21:02:34 0° 219° (SW) 4,202 5.7 -31.4°
Enters shadow 21:04:49 - 219° (SW) 3,430 5.2 -31.7°
Exits shadow 21:11:57 66° 219° (SW) 1,379 3.0 -32.4°
Maximum altitude 21:13:19 89° 137° (SE) 1,277 2.9 -32.5°
Drops below altitude 10° 21:21:12 10° 43° (NE) 3,214 5.3 -33.2°
Sets 21:23:56 0° 44° (NE) 4,151 5.9 -33.5°
